Year,Month,Day,Hour,Minute,Value (Times are PST for temperature in C)
2014,01,11,00,00,1.80
2014,01,11,00,01,1.90
2014,01,11,00,02,1.80
2014,01,11,00,03,1.80
2014,01,11,00,04,1.80
2014,01,11,00,05,1.80
2014,01,11,00,06,1.80
2014,01,11,00,07,1.80
2014,01,11,00,08,1.80
2014,01,11,00,09,1.80
2014,01,11,00,10,1.80
2014,01,11,00,11,1.80
2014,01,11,00,12,1.80
2014,01,11,00,13,1.80
2014,01,11,00,14,1.80
2014,01,11,00,15,1.80
2014,01,11,00,16,1.80
2014,01,11,00,17,1.80
2014,01,11,00,18,1.80
2014,01,11,00,19,1.80
2014,01,11,00,20,1.80
2014,01,11,00,21,1.80
2014,01,11,00,22,1.80
2014,01,11,00,23,1.80
2014,01,11,00,24,1.80
2014,01,11,00,25,1.80
2014,01,11,00,26,1.80
2014,01,11,00,27,1.80
2014,01,11,00,28,1.80
2014,01,11,00,29,1.80
2014,01,11,00,30,1.80
2014,01,11,00,31,1.80
2014,01,11,00,32,1.80
2014,01,11,00,33,1.80
2014,01,11,00,34,1.80
2014,01,11,00,35,1.80
2014,01,11,00,36,1.80
2014,01,11,00,37,1.80
2014,01,11,00,38,1.80
2014,01,11,00,39,1.80
2014,01,11,00,40,1.80
2014,01,11,00,41,1.70
2014,01,11,00,42,1.70
2014,01,11,00,43,1.70
2014,01,11,00,44,1.70
2014,01,11,00,45,1.70
2014,01,11,00,46,1.80
2014,01,11,00,47,1.70
2014,01,11,00,48,1.70
2014,01,11,00,49,1.70
2014,01,11,00,50,1.70
2014,01,11,00,51,1.70
2014,01,11,00,52,1.70
2014,01,11,00,53,1.70
2014,01,11,00,54,1.70
2014,01,11,00,55,1.70
2014,01,11,00,56,1.70
2014,01,11,00,57,1.70
2014,01,11,00,58,1.70
2014,01,11,00,59,1.70
2014,01,11,01,00,1.70
2014,01,11,01,01,1.70
2014,01,11,01,02,1.80
2014,01,11,01,03,1.80
2014,01,11,01,04,1.80
2014,01,11,01,05,1.80
2014,01,11,01,06,1.80
2014,01,11,01,07,1.80
2014,01,11,01,08,1.80
2014,01,11,01,09,1.80
2014,01,11,01,10,1.80
2014,01,11,01,11,1.80
2014,01,11,01,12,1.80
2014,01,11,01,13,1.80
2014,01,11,01,14,1.80
2014,01,11,01,15,1.80
2014,01,11,01,16,1.80
2014,01,11,01,17,1.80
2014,01,11,01,18,1.80
2014,01,11,01,19,1.80
2014,01,11,01,20,1.80
2014,01,11,01,21,1.80
2014,01,11,01,22,1.80
2014,01,11,01,23,1.80
2014,01,11,01,24,1.80
2014,01,11,01,25,1.80
2014,01,11,01,26,1.80
2014,01,11,01,27,1.80
2014,01,11,01,28,1.80
2014,01,11,01,29,1.80
2014,01,11,01,30,1.80
2014,01,11,01,31,1.80
2014,01,11,01,32,1.80
2014,01,11,01,33,1.80
2014,01,11,01,34,1.80
2014,01,11,01,35,1.80
2014,01,11,01,36,1.80
2014,01,11,01,37,1.80
2014,01,11,01,38,1.80
2014,01,11,01,39,1.80
2014,01,11,01,40,1.80
2014,01,11,01,41,1.80
2014,01,11,01,42,1.80
2014,01,11,01,43,1.80
2014,01,11,01,44,1.80
2014,01,11,01,45,1.80
2014,01,11,01,46,1.80
2014,01,11,01,47,1.80
2014,01,11,01,48,1.80
2014,01,11,01,49,1.80
2014,01,11,01,50,1.80
2014,01,11,01,51,1.80
2014,01,11,01,52,1.90
2014,01,11,01,53,1.90
2014,01,11,01,54,1.90
2014,01,11,01,55,1.90
2014,01,11,01,56,1.90
2014,01,11,01,57,1.90
2014,01,11,01,58,1.90
2014,01,11,01,59,1.90
2014,01,11,02,00,1.90
2014,01,11,02,01,1.90
2014,01,11,02,02,2.00
2014,01,11,02,03,2.00
2014,01,11,02,04,2.00
2014,01,11,02,05,2.00
2014,01,11,02,06,2.00
2014,01,11,02,07,2.00
2014,01,11,02,08,2.10
2014,01,11,02,09,2.10
2014,01,11,02,10,2.10
2014,01,11,02,11,2.10
2014,01,11,02,12,2.10
2014,01,11,02,13,2.10
2014,01,11,02,14,2.10
2014,01,11,02,15,2.10
2014,01,11,02,16,2.10
2014,01,11,02,17,2.10
2014,01,11,02,18,2.10
2014,01,11,02,19,2.10
2014,01,11,02,20,2.10
2014,01,11,02,21,2.20
2014,01,11,02,22,2.20
2014,01,11,02,23,2.20
2014,01,11,02,24,2.20
2014,01,11,02,25,2.20
2014,01,11,02,26,2.20
2014,01,11,02,27,2.20
2014,01,11,02,28,2.20
2014,01,11,02,29,2.20
2014,01,11,02,30,2.20
2014,01,11,02,31,2.20
2014,01,11,02,32,2.20
2014,01,11,02,33,2.20
2014,01,11,02,34,2.20
2014,01,11,02,35,2.20
2014,01,11,02,36,2.20
2014,01,11,02,37,2.20
2014,01,11,02,38,2.20
2014,01,11,02,39,2.20
2014,01,11,02,40,2.20
2014,01,11,02,41,2.20
2014,01,11,02,42,2.20
2014,01,11,02,43,2.20
2014,01,11,02,44,2.20
2014,01,11,02,45,2.30
2014,01,11,02,46,2.30
2014,01,11,02,47,2.30
2014,01,11,02,48,2.30
2014,01,11,02,49,2.30
2014,01,11,02,50,2.30
2014,01,11,02,51,2.30
2014,01,11,02,52,2.30
2014,01,11,02,53,2.30
2014,01,11,02,54,2.30
2014,01,11,02,55,2.30
2014,01,11,02,56,2.30
2014,01,11,02,57,2.30
2014,01,11,02,58,2.30
2014,01,11,02,59,2.30
2014,01,11,03,00,2.30
2014,01,11,03,01,2.30
2014,01,11,03,02,2.30
2014,01,11,03,03,2.30
2014,01,11,03,04,2.30
2014,01,11,03,05,2.30
2014,01,11,03,06,2.30
2014,01,11,03,07,2.30
2014,01,11,03,08,2.30
2014,01,11,03,09,2.40
2014,01,11,03,10,2.40
2014,01,11,03,11,2.40
2014,01,11,03,12,2.40
2014,01,11,03,13,2.40
2014,01,11,03,14,2.40
2014,01,11,03,15,2.40
2014,01,11,03,16,2.40
2014,01,11,03,17,2.40
2014,01,11,03,18,2.40
2014,01,11,03,19,2.40
2014,01,11,03,20,2.40
2014,01,11,03,21,2.40
2014,01,11,03,22,2.40
2014,01,11,03,23,2.40
2014,01,11,03,24,2.40
2014,01,11,03,25,2.40
2014,01,11,03,26,2.40
2014,01,11,03,27,2.40
2014,01,11,03,28,2.40
2014,01,11,03,29,2.40
2014,01,11,03,30,2.40
2014,01,11,03,31,2.40
2014,01,11,03,32,2.30
2014,01,11,03,33,2.30
2014,01,11,03,34,2.30
2014,01,11,03,35,2.30
2014,01,11,03,36,2.30
2014,01,11,03,37,2.30
2014,01,11,03,38,2.30
2014,01,11,03,39,2.30
2014,01,11,03,40,2.30
2014,01,11,03,41,2.40
2014,01,11,03,42,2.40
2014,01,11,03,43,2.40
2014,01,11,03,44,2.40
2014,01,11,03,45,2.40
2014,01,11,03,46,2.40
2014,01,11,03,47,2.40
2014,01,11,03,48,2.40
2014,01,11,03,49,2.40
2014,01,11,03,50,2.40
2014,01,11,03,51,2.40
2014,01,11,03,52,2.40
2014,01,11,03,53,2.40
2014,01,11,03,54,2.40
2014,01,11,03,55,2.40
2014,01,11,03,56,2.50
2014,01,11,03,57,2.50
2014,01,11,03,58,2.50
2014,01,11,03,59,2.50
2014,01,11,04,00,2.50
2014,01,11,04,01,2.50
2014,01,11,04,02,2.50
2014,01,11,04,03,2.50
2014,01,11,04,04,2.60
2014,01,11,04,05,2.60
2014,01,11,04,06,2.60
2014,01,11,04,07,2.60
2014,01,11,04,08,2.60
2014,01,11,04,09,2.70
2014,01,11,04,10,2.70
2014,01,11,04,11,2.70
2014,01,11,04,12,2.70
2014,01,11,04,13,2.70
2014,01,11,04,14,2.70
2014,01,11,04,15,2.70
2014,01,11,04,16,2.70
2014,01,11,04,17,2.70
2014,01,11,04,18,2.80
2014,01,11,04,19,2.80
2014,01,11,04,20,2.80
2014,01,11,04,21,2.80
2014,01,11,04,22,2.80
2014,01,11,04,23,2.80
2014,01,11,04,24,2.80
2014,01,11,04,25,2.80
2014,01,11,04,26,2.80
2014,01,11,04,27,2.80
2014,01,11,04,28,2.70
2014,01,11,04,29,2.70
2014,01,11,04,30,2.70
2014,01,11,04,31,2.70
2014,01,11,04,32,2.70
2014,01,11,04,33,2.70
2014,01,11,04,34,2.70
2014,01,11,04,35,2.70
2014,01,11,04,36,2.70
2014,01,11,04,37,2.80
2014,01,11,04,38,2.80
2014,01,11,04,39,2.80
2014,01,11,04,40,2.80
2014,01,11,04,41,2.90
2014,01,11,04,42,3.00
2014,01,11,04,43,3.10
2014,01,11,04,44,3.20
2014,01,11,04,45,3.30
2014,01,11,04,46,3.30
2014,01,11,04,47,3.30
2014,01,11,04,48,3.30
2014,01,11,04,49,3.40
2014,01,11,04,50,3.40
2014,01,11,04,51,3.50
2014,01,11,04,52,3.50
2014,01,11,04,53,3.60
2014,01,11,04,54,3.60
2014,01,11,04,55,3.70
2014,01,11,04,56,3.90
2014,01,11,04,57,4.00
2014,01,11,04,58,4.10
2014,01,11,04,59,4.20
2014,01,11,05,00,4.00
2014,01,11,05,01,3.90
2014,01,11,05,02,3.70
2014,01,11,05,03,3.60
2014,01,11,05,04,3.50
2014,01,11,05,05,3.40
2014,01,11,05,06,3.40
2014,01,11,05,07,3.30
2014,01,11,05,08,3.40
2014,01,11,05,09,3.40
2014,01,11,05,10,3.40
2014,01,11,05,11,3.40
2014,01,11,05,12,3.40
2014,01,11,05,13,3.50
2014,01,11,05,14,3.50
2014,01,11,05,15,3.50
2014,01,11,05,16,3.50
2014,01,11,05,17,3.50
2014,01,11,05,18,3.60
2014,01,11,05,19,3.60
2014,01,11,05,20,3.70
2014,01,11,05,21,3.70
2014,01,11,05,22,3.70
2014,01,11,05,23,3.70
2014,01,11,05,24,3.70
2014,01,11,05,25,3.70
2014,01,11,05,26,3.70
2014,01,11,05,27,3.70
2014,01,11,05,28,3.70
2014,01,11,05,29,3.70
2014,01,11,05,30,3.80
2014,01,11,05,31,3.80
2014,01,11,05,32,3.80
2014,01,11,05,33,3.80
2014,01,11,05,34,3.80
2014,01,11,05,35,3.80
2014,01,11,05,36,3.80
2014,01,11,05,37,3.80
2014,01,11,05,38,3.90
2014,01,11,05,39,3.90
2014,01,11,05,40,3.90
2014,01,11,05,41,3.90
2014,01,11,05,42,3.90
2014,01,11,05,43,4.00
2014,01,11,05,44,4.00
2014,01,11,05,45,4.00
2014,01,11,05,46,4.10
2014,01,11,05,47,4.10
2014,01,11,05,48,4.10
2014,01,11,05,49,4.10
2014,01,11,05,50,4.20
2014,01,11,05,51,4.20
2014,01,11,05,52,4.30
2014,01,11,05,53,4.30
2014,01,11,05,54,4.30
2014,01,11,05,55,4.30
2014,01,11,05,56,4.30
2014,01,11,05,57,4.30
2014,01,11,05,58,4.30
2014,01,11,05,59,4.40
2014,01,11,06,00,4.40
2014,01,11,06,01,4.40
2014,01,11,06,02,4.40
2014,01,11,06,03,4.40
2014,01,11,06,04,4.50
2014,01,11,06,05,4.50
2014,01,11,06,06,4.50
2014,01,11,06,07,4.60
2014,01,11,06,08,4.70
2014,01,11,06,09,4.80
2014,01,11,06,10,5.00
2014,01,11,06,11,5.20
2014,01,11,06,12,5.30
2014,01,11,06,13,5.40
2014,01,11,06,14,5.50
2014,01,11,06,15,5.60
2014,01,11,06,16,5.60
2014,01,11,06,17,5.60
2014,01,11,06,18,5.60
2014,01,11,06,19,5.70
2014,01,11,06,20,5.70
2014,01,11,06,21,5.80
2014,01,11,06,22,5.80
2014,01,11,06,23,5.80
2014,01,11,06,24,5.90
2014,01,11,06,25,5.90
2014,01,11,06,26,6.00
2014,01,11,06,27,6.00
2014,01,11,06,28,6.10
2014,01,11,06,29,6.10
2014,01,11,06,30,6.20
2014,01,11,06,31,6.20
2014,01,11,06,32,6.30
2014,01,11,06,33,6.40
2014,01,11,06,34,6.40
2014,01,11,06,35,6.40
2014,01,11,06,36,6.40
2014,01,11,06,37,6.50
2014,01,11,06,38,6.80
2014,01,11,06,39,6.80
2014,01,11,06,40,6.80
2014,01,11,06,41,6.80
2014,01,11,06,42,6.80
2014,01,11,06,43,6.80
2014,01,11,06,44,6.70
2014,01,11,06,45,6.70
2014,01,11,06,46,6.70
2014,01,11,06,47,6.70
2014,01,11,06,48,6.70
2014,01,11,06,49,6.70
2014,01,11,06,50,6.70
2014,01,11,06,51,6.70
2014,01,11,06,52,6.70
2014,01,11,06,53,6.70
2014,01,11,06,54,6.70
2014,01,11,06,55,6.70
2014,01,11,06,56,6.70
2014,01,11,06,57,6.70
2014,01,11,06,58,6.70
2014,01,11,06,59,6.60
2014,01,11,07,00,6.60
2014,01,11,07,01,6.60
2014,01,11,07,02,6.60
2014,01,11,07,03,6.60
2014,01,11,07,04,6.60
2014,01,11,07,05,6.50
2014,01,11,07,06,6.50
2014,01,11,07,07,6.50
2014,01,11,07,08,6.60
2014,01,11,07,09,6.60
2014,01,11,07,10,6.60
2014,01,11,07,11,6.60
2014,01,11,07,12,6.60
2014,01,11,07,13,6.60
2014,01,11,07,14,6.60
2014,01,11,07,15,6.60
2014,01,11,07,16,6.70
2014,01,11,07,17,6.70
2014,01,11,07,18,6.70
2014,01,11,07,19,6.70
2014,01,11,07,20,6.70
2014,01,11,07,21,6.70
2014,01,11,07,22,6.70
2014,01,11,07,23,6.80
2014,01,11,07,24,6.80
2014,01,11,07,25,6.80
2014,01,11,07,26,6.80
2014,01,11,07,27,6.80
2014,01,11,07,28,6.80
2014,01,11,07,29,6.80
2014,01,11,07,30,6.80
2014,01,11,07,31,6.90
2014,01,11,07,32,6.90
2014,01,11,07,33,6.90
2014,01,11,07,34,6.90
2014,01,11,07,35,6.90
2014,01,11,07,36,7.00
2014,01,11,07,37,7.00
2014,01,11,07,38,7.00
2014,01,11,07,39,7.00
2014,01,11,07,40,7.00
2014,01,11,07,41,7.10
2014,01,11,07,42,7.10
2014,01,11,07,43,7.10
2014,01,11,07,44,7.20
2014,01,11,07,45,7.20
2014,01,11,07,46,7.20
2014,01,11,07,47,7.20
2014,01,11,07,48,7.20
2014,01,11,07,49,7.20
2014,01,11,07,50,7.30
2014,01,11,07,51,7.30
2014,01,11,07,52,7.30
2014,01,11,07,53,7.30
2014,01,11,07,54,7.30
2014,01,11,07,55,7.30
2014,01,11,07,56,7.40
2014,01,11,07,57,7.40
2014,01,11,07,58,7.40
2014,01,11,07,59,7.50
2014,01,11,08,00,7.50
2014,01,11,08,01,7.50
2014,01,11,08,02,7.50
2014,01,11,08,03,7.50
2014,01,11,08,04,7.50
2014,01,11,08,05,7.50
2014,01,11,08,06,7.50
2014,01,11,08,07,7.50
2014,01,11,08,08,7.60
2014,01,11,08,09,7.60
2014,01,11,08,10,7.60
2014,01,11,08,11,7.60
2014,01,11,08,12,7.60
2014,01,11,08,13,7.60
2014,01,11,08,14,7.50
2014,01,11,08,15,7.50
2014,01,11,08,16,7.50
2014,01,11,08,17,7.60
2014,01,11,08,18,7.60
2014,01,11,08,19,7.60
2014,01,11,08,20,7.60
2014,01,11,08,21,7.60
2014,01,11,08,22,7.60
2014,01,11,08,23,7.60
2014,01,11,08,24,7.60
2014,01,11,08,25,7.60
2014,01,11,08,26,7.60
2014,01,11,08,27,7.50
2014,01,11,08,28,7.50
2014,01,11,08,29,7.50
2014,01,11,08,30,7.40
2014,01,11,08,31,7.40
2014,01,11,08,32,7.40
2014,01,11,08,33,7.30
2014,01,11,08,34,7.30
2014,01,11,08,35,7.30
2014,01,11,08,36,7.30
2014,01,11,08,37,7.30
2014,01,11,08,38,7.30
2014,01,11,08,39,7.20
2014,01,11,08,40,7.20
2014,01,11,08,41,7.20
2014,01,11,08,42,7.20
2014,01,11,08,43,7.20
2014,01,11,08,44,7.20
2014,01,11,08,45,7.20
2014,01,11,08,46,7.20
2014,01,11,08,47,7.20
2014,01,11,08,48,7.20
2014,01,11,08,49,7.20
2014,01,11,08,50,7.20
2014,01,11,08,51,7.20
2014,01,11,08,52,7.20
2014,01,11,08,53,7.30
2014,01,11,08,54,7.30
2014,01,11,08,55,7.30
2014,01,11,08,56,7.30
2014,01,11,08,57,7.30
2014,01,11,08,58,7.20
2014,01,11,08,59,7.20
2014,01,11,09,00,7.20
2014,01,11,09,01,7.20
2014,01,11,09,02,7.20
2014,01,11,09,03,7.10
2014,01,11,09,04,7.10
2014,01,11,09,05,7.10
2014,01,11,09,06,7.10
2014,01,11,09,07,7.10
2014,01,11,09,08,7.10
2014,01,11,09,09,7.10
2014,01,11,09,10,7.10
2014,01,11,09,11,7.10
2014,01,11,09,12,7.10
2014,01,11,09,13,7.10
2014,01,11,09,14,7.10
2014,01,11,09,15,7.10
2014,01,11,09,16,7.10
2014,01,11,09,17,7.10
2014,01,11,09,18,7.10
2014,01,11,09,19,7.10
2014,01,11,09,20,7.10
2014,01,11,09,21,7.10
2014,01,11,09,22,7.10
2014,01,11,09,23,7.10
2014,01,11,09,24,7.20
2014,01,11,09,25,7.20
2014,01,11,09,26,7.20
2014,01,11,09,27,7.20
2014,01,11,09,28,7.20
2014,01,11,09,29,7.20
2014,01,11,09,30,7.30
2014,01,11,09,31,7.30
2014,01,11,09,32,7.30
2014,01,11,09,33,7.30
2014,01,11,09,34,7.30
2014,01,11,09,35,7.30
2014,01,11,09,36,7.30
2014,01,11,09,37,7.40
2014,01,11,09,38,7.50
2014,01,11,09,39,7.50
2014,01,11,09,40,7.50
2014,01,11,09,41,7.50
2014,01,11,09,42,7.60
2014,01,11,09,43,7.60
2014,01,11,09,44,7.60
2014,01,11,09,45,7.60
2014,01,11,09,46,7.60
2014,01,11,09,47,7.50
2014,01,11,09,48,7.50
2014,01,11,09,49,7.50
2014,01,11,09,50,7.50
2014,01,11,09,51,7.50
2014,01,11,09,52,7.50
2014,01,11,09,53,7.60
2014,01,11,09,54,7.50
2014,01,11,09,55,7.50
2014,01,11,09,56,7.50
2014,01,11,09,57,7.50
2014,01,11,09,58,7.50
2014,01,11,09,59,7.50
2014,01,11,10,00,7.40
2014,01,11,10,01,7.40
2014,01,11,10,02,7.40
2014,01,11,10,03,7.40
2014,01,11,10,04,7.40
2014,01,11,10,05,7.40
2014,01,11,10,06,7.40
2014,01,11,10,07,7.30
2014,01,11,10,08,7.30
2014,01,11,10,09,7.30
2014,01,11,10,10,7.30
2014,01,11,10,11,7.40
2014,01,11,10,12,7.40
2014,01,11,10,13,7.40
2014,01,11,10,14,7.40
2014,01,11,10,15,7.50
2014,01,11,10,16,7.50
2014,01,11,10,17,7.50
2014,01,11,10,18,7.50
2014,01,11,10,19,7.50
2014,01,11,10,20,7.60
2014,01,11,10,21,7.60
2014,01,11,10,22,7.60
2014,01,11,10,23,7.60
2014,01,11,10,24,7.60
2014,01,11,10,25,7.60
2014,01,11,10,26,7.70
2014,01,11,10,27,7.70
2014,01,11,10,28,7.70
2014,01,11,10,29,7.70
2014,01,11,10,30,7.70
2014,01,11,10,31,7.70
2014,01,11,10,32,7.70
2014,01,11,10,33,7.70
2014,01,11,10,34,7.70
2014,01,11,10,35,7.70
2014,01,11,10,36,7.70
2014,01,11,10,37,7.70
2014,01,11,10,38,7.70
2014,01,11,10,39,7.70
2014,01,11,10,40,7.70
2014,01,11,10,41,7.80
2014,01,11,10,42,7.80
2014,01,11,10,43,7.80
2014,01,11,10,44,7.80
2014,01,11,10,45,7.80
2014,01,11,10,46,7.80
2014,01,11,10,47,7.90
2014,01,11,10,48,7.90
2014,01,11,10,49,7.90
2014,01,11,10,50,7.90
2014,01,11,10,51,7.90
2014,01,11,10,52,7.90
2014,01,11,10,53,7.90
2014,01,11,10,54,7.90
2014,01,11,10,55,7.90
2014,01,11,10,56,8.00
2014,01,11,10,57,8.00
2014,01,11,10,58,8.10
2014,01,11,10,59,8.10
2014,01,11,11,00,8.10
2014,01,11,11,01,8.10
2014,01,11,11,02,8.10
2014,01,11,11,03,8.10
2014,01,11,11,04,8.10
2014,01,11,11,05,8.10
2014,01,11,11,06,8.10
2014,01,11,11,07,8.10
2014,01,11,11,08,8.10
2014,01,11,11,09,8.10
2014,01,11,11,10,8.10
2014,01,11,11,11,8.10
2014,01,11,11,12,8.10
2014,01,11,11,13,8.10
2014,01,11,11,14,8.10
2014,01,11,11,15,8.20
2014,01,11,11,16,8.20
2014,01,11,11,17,8.20
2014,01,11,11,18,8.20
2014,01,11,11,19,8.20
2014,01,11,11,20,8.20
2014,01,11,11,21,8.20
2014,01,11,11,22,8.20
2014,01,11,11,23,8.20
2014,01,11,11,24,8.20
2014,01,11,11,25,8.20
2014,01,11,11,26,8.10
2014,01,11,11,27,8.10
2014,01,11,11,28,8.10
2014,01,11,11,29,8.10
2014,01,11,11,30,8.10
2014,01,11,11,31,8.10
2014,01,11,11,32,8.10
2014,01,11,11,33,8.10
2014,01,11,11,34,8.10
2014,01,11,11,35,8.20
2014,01,11,11,36,8.20
2014,01,11,11,37,8.20
2014,01,11,11,38,8.20
2014,01,11,11,39,8.20
2014,01,11,11,40,8.20
2014,01,11,11,41,8.20
2014,01,11,11,42,8.20
2014,01,11,11,43,8.20
2014,01,11,11,44,8.20
2014,01,11,11,45,8.20
2014,01,11,11,46,8.20
2014,01,11,11,47,8.10
2014,01,11,11,48,8.10
2014,01,11,11,49,8.00
2014,01,11,11,50,8.00
2014,01,11,11,51,7.90
2014,01,11,11,52,7.90
2014,01,11,11,53,7.90
2014,01,11,11,54,7.90
2014,01,11,11,55,7.90
2014,01,11,11,56,7.90
2014,01,11,11,57,7.70
2014,01,11,11,58,7.70
2014,01,11,11,59,7.70
2014,01,11,12,00,7.70
2014,01,11,12,01,7.60
2014,01,11,12,02,7.60
2014,01,11,12,03,7.60
2014,01,11,12,04,7.60
2014,01,11,12,05,7.60
2014,01,11,12,06,7.70
2014,01,11,12,07,7.70
2014,01,11,12,08,7.70
2014,01,11,12,09,7.70
2014,01,11,12,10,7.70
2014,01,11,12,11,7.70
2014,01,11,12,12,7.70
2014,01,11,12,13,7.70
2014,01,11,12,14,7.70
2014,01,11,12,15,7.70
2014,01,11,12,16,7.70
2014,01,11,12,17,7.70
2014,01,11,12,18,7.70
2014,01,11,12,19,7.70
2014,01,11,12,20,7.70
2014,01,11,12,21,7.70
2014,01,11,12,22,7.60
2014,01,11,12,23,7.60
2014,01,11,12,24,7.60
2014,01,11,12,25,7.70
2014,01,11,12,26,7.60
2014,01,11,12,27,7.60
2014,01,11,12,28,7.60
2014,01,11,12,29,7.60
2014,01,11,12,30,7.60
2014,01,11,12,31,7.60
2014,01,11,12,32,7.60
2014,01,11,12,33,7.60
2014,01,11,12,34,7.60
2014,01,11,12,35,7.60
2014,01,11,12,36,7.60
2014,01,11,12,37,7.50
2014,01,11,12,38,7.50
2014,01,11,12,39,7.40
2014,01,11,12,40,7.40
2014,01,11,12,41,7.40
2014,01,11,12,42,7.30
2014,01,11,12,43,7.30
2014,01,11,12,44,7.20
2014,01,11,12,45,7.10
2014,01,11,12,46,7.00
2014,01,11,12,47,6.90
2014,01,11,12,48,6.80
2014,01,11,12,49,6.70
2014,01,11,12,50,6.70
2014,01,11,12,51,6.60
2014,01,11,12,52,6.50
2014,01,11,12,53,6.50
2014,01,11,12,54,6.40
2014,01,11,12,55,6.40
2014,01,11,12,56,6.40
2014,01,11,12,57,6.30
2014,01,11,12,58,6.30
2014,01,11,12,59,6.30
2014,01,11,13,00,6.30
2014,01,11,13,01,6.30
2014,01,11,13,02,6.30
2014,01,11,13,03,6.20
2014,01,11,13,04,6.20
2014,01,11,13,05,6.20
2014,01,11,13,06,6.20
2014,01,11,13,07,6.20
2014,01,11,13,08,6.20
2014,01,11,13,09,6.10
2014,01,11,13,10,6.10
2014,01,11,13,11,6.10
2014,01,11,13,12,6.10
2014,01,11,13,13,6.10
2014,01,11,13,14,6.10
2014,01,11,13,15,6.00
2014,01,11,13,16,6.00
2014,01,11,13,17,6.00
2014,01,11,13,18,6.00
2014,01,11,13,19,6.00
2014,01,11,13,20,6.00
2014,01,11,13,21,6.00
2014,01,11,13,22,6.00
2014,01,11,13,23,6.00
2014,01,11,13,24,6.00
2014,01,11,13,25,6.00
2014,01,11,13,26,6.00
2014,01,11,13,27,6.00
2014,01,11,13,28,6.00
2014,01,11,13,29,6.00
2014,01,11,13,30,6.10
2014,01,11,13,31,6.10
2014,01,11,13,32,6.10
2014,01,11,13,33,6.10
2014,01,11,13,34,6.10
2014,01,11,13,35,6.10
2014,01,11,13,36,6.10
2014,01,11,13,37,6.10
2014,01,11,13,38,6.10
2014,01,11,13,39,6.10
2014,01,11,13,40,6.10
2014,01,11,13,41,6.10
2014,01,11,13,42,6.00
2014,01,11,13,43,6.00
2014,01,11,13,44,6.00
2014,01,11,13,45,6.00
2014,01,11,13,46,6.00
2014,01,11,13,47,6.00
2014,01,11,13,48,6.00
2014,01,11,13,49,5.90
2014,01,11,13,50,5.90
2014,01,11,13,51,5.90
2014,01,11,13,52,5.90
2014,01,11,13,53,5.90
2014,01,11,13,54,5.90
2014,01,11,13,55,5.90
2014,01,11,13,56,5.90
2014,01,11,13,57,5.90
2014,01,11,13,58,5.90
2014,01,11,13,59,5.90
2014,01,11,14,00,5.90
2014,01,11,14,01,5.90
2014,01,11,14,02,5.90
2014,01,11,14,03,5.90
2014,01,11,14,04,5.90
2014,01,11,14,05,5.90
2014,01,11,14,06,5.90
2014,01,11,14,07,5.90
2014,01,11,14,08,5.90
2014,01,11,14,09,5.80
2014,01,11,14,10,5.90
2014,01,11,14,11,5.80
2014,01,11,14,12,5.90
2014,01,11,14,13,5.90
2014,01,11,14,14,5.90
2014,01,11,14,15,5.90
2014,01,11,14,16,5.90
2014,01,11,14,17,5.90
2014,01,11,14,18,5.90
2014,01,11,14,19,5.90
2014,01,11,14,20,5.90
2014,01,11,14,21,5.90
2014,01,11,14,22,5.90
2014,01,11,14,23,5.90
2014,01,11,14,24,5.90
2014,01,11,14,25,5.90
2014,01,11,14,26,5.90
2014,01,11,14,27,5.90
2014,01,11,14,28,5.90
2014,01,11,14,29,5.90
2014,01,11,14,30,5.90
2014,01,11,14,31,5.80
2014,01,11,14,32,5.80
2014,01,11,14,33,5.80
2014,01,11,14,34,5.70
2014,01,11,14,35,5.70
2014,01,11,14,36,5.70
2014,01,11,14,37,5.70
2014,01,11,14,38,5.70
2014,01,11,14,39,5.70
2014,01,11,14,40,5.70
2014,01,11,14,41,5.70
2014,01,11,14,42,5.70
2014,01,11,14,43,5.60
2014,01,11,14,44,5.60
2014,01,11,14,45,5.60
2014,01,11,14,46,5.60
2014,01,11,14,47,5.60
2014,01,11,14,48,5.60
2014,01,11,14,49,5.50
2014,01,11,14,50,5.50
2014,01,11,14,51,5.50
2014,01,11,14,52,5.50
2014,01,11,14,53,5.50
2014,01,11,14,54,5.50
2014,01,11,14,55,5.50
2014,01,11,14,56,5.50
2014,01,11,14,57,5.50
2014,01,11,14,58,5.60
2014,01,11,14,59,5.60
2014,01,11,15,00,5.60
2014,01,11,15,01,5.60
2014,01,11,15,02,5.60
2014,01,11,15,03,5.60
2014,01,11,15,04,5.60
2014,01,11,15,05,5.60
2014,01,11,15,06,5.60
2014,01,11,15,07,5.60
2014,01,11,15,08,5.60
2014,01,11,15,09,5.60
2014,01,11,15,10,5.60
2014,01,11,15,11,5.60
2014,01,11,15,12,5.60
2014,01,11,15,13,5.60
2014,01,11,15,14,5.60
2014,01,11,15,15,5.60
2014,01,11,15,16,5.60
2014,01,11,15,17,5.60
2014,01,11,15,18,5.60
2014,01,11,15,19,5.60
2014,01,11,15,20,5.60
2014,01,11,15,21,5.60
2014,01,11,15,22,5.60
2014,01,11,15,23,5.70
2014,01,11,15,24,5.70
2014,01,11,15,25,5.60
2014,01,11,15,26,5.60
2014,01,11,15,27,5.60
2014,01,11,15,28,5.60
2014,01,11,15,29,5.60
2014,01,11,15,30,5.60
2014,01,11,15,31,5.70
2014,01,11,15,32,5.70
2014,01,11,15,33,5.70
2014,01,11,15,34,5.70
2014,01,11,15,35,5.70
2014,01,11,15,36,5.70
2014,01,11,15,37,5.70
2014,01,11,15,38,5.70
2014,01,11,15,39,5.70
2014,01,11,15,40,5.70
2014,01,11,15,41,5.70
2014,01,11,15,42,5.70
2014,01,11,15,43,5.70
2014,01,11,15,44,5.70
2014,01,11,15,45,5.70
2014,01,11,15,46,5.70
2014,01,11,15,47,5.70
2014,01,11,15,48,5.70
2014,01,11,15,49,5.80
2014,01,11,15,50,5.80
2014,01,11,15,51,5.90
2014,01,11,15,52,5.90
2014,01,11,15,53,5.90
2014,01,11,15,54,5.90
2014,01,11,15,55,5.90
2014,01,11,15,56,5.90
2014,01,11,15,57,5.90
2014,01,11,15,58,5.90
2014,01,11,15,59,5.90
2014,01,11,16,00,5.90
2014,01,11,16,01,5.80
2014,01,11,16,02,5.80
2014,01,11,16,03,5.80
2014,01,11,16,04,5.80
2014,01,11,16,05,5.80
2014,01,11,16,06,5.80
2014,01,11,16,07,5.80
2014,01,11,16,08,5.80
2014,01,11,16,09,5.80
2014,01,11,16,10,5.80
2014,01,11,16,11,5.80
2014,01,11,16,12,5.80
2014,01,11,16,13,5.80
2014,01,11,16,14,5.80
2014,01,11,16,15,5.90
2014,01,11,16,16,5.90
2014,01,11,16,17,5.90
2014,01,11,16,18,5.90
2014,01,11,16,19,5.90
2014,01,11,16,20,5.90
2014,01,11,16,21,5.90
2014,01,11,16,22,5.90
2014,01,11,16,23,5.90
2014,01,11,16,24,5.90
2014,01,11,16,25,5.90
2014,01,11,16,26,5.90
2014,01,11,16,27,5.80
2014,01,11,16,28,5.80
2014,01,11,16,29,5.80
2014,01,11,16,30,5.80
2014,01,11,16,31,5.80
2014,01,11,16,32,5.80
2014,01,11,16,33,5.70
2014,01,11,16,34,5.70
2014,01,11,16,35,5.70
2014,01,11,16,36,5.70
2014,01,11,16,37,5.70
2014,01,11,16,38,5.70
2014,01,11,16,39,5.70
2014,01,11,16,40,5.60
2014,01,11,16,41,5.60
2014,01,11,16,42,5.60
2014,01,11,16,43,5.50
2014,01,11,16,44,5.50
2014,01,11,16,45,5.50
2014,01,11,16,46,5.50
2014,01,11,16,47,5.40
2014,01,11,16,48,5.40
2014,01,11,16,49,5.40
2014,01,11,16,50,5.40
2014,01,11,16,51,5.30
2014,01,11,16,52,5.30
2014,01,11,16,53,5.30
2014,01,11,16,54,5.30
2014,01,11,16,55,5.30
2014,01,11,16,56,5.30
2014,01,11,16,57,5.30
2014,01,11,16,58,5.30
2014,01,11,16,59,5.30
2014,01,11,17,00,5.30
2014,01,11,17,01,5.30
2014,01,11,17,02,5.30
2014,01,11,17,03,5.30
2014,01,11,17,04,5.30
2014,01,11,17,05,5.30
2014,01,11,17,06,5.30
2014,01,11,17,07,5.30
2014,01,11,17,08,5.30
2014,01,11,17,09,5.20
2014,01,11,17,10,5.20
2014,01,11,17,11,5.20
2014,01,11,17,12,5.20
2014,01,11,17,13,5.20
2014,01,11,17,14,5.20
2014,01,11,17,15,5.20
2014,01,11,17,16,5.20
2014,01,11,17,17,5.20
2014,01,11,17,18,5.20
2014,01,11,17,19,5.20
2014,01,11,17,20,5.20
2014,01,11,17,21,5.20
2014,01,11,17,22,5.20
2014,01,11,17,23,5.20
2014,01,11,17,24,5.20
2014,01,11,17,25,5.10
2014,01,11,17,26,5.10
2014,01,11,17,27,5.10
2014,01,11,17,28,5.10
2014,01,11,17,29,5.10
2014,01,11,17,30,5.10
2014,01,11,17,31,5.10
2014,01,11,17,32,5.10
2014,01,11,17,33,5.00
2014,01,11,17,34,5.00
2014,01,11,17,35,5.00
2014,01,11,17,36,4.90
2014,01,11,17,37,4.90
2014,01,11,17,38,4.90
2014,01,11,17,39,4.90
2014,01,11,17,40,4.90
2014,01,11,17,41,4.90
2014,01,11,17,42,4.80
2014,01,11,17,43,4.80
2014,01,11,17,44,4.80
2014,01,11,17,45,4.80
2014,01,11,17,46,4.80
2014,01,11,17,47,4.80
2014,01,11,17,48,4.80
2014,01,11,17,49,4.80
2014,01,11,17,50,4.80
2014,01,11,17,51,4.80
2014,01,11,17,52,4.80
2014,01,11,17,53,4.70
2014,01,11,17,54,4.70
2014,01,11,17,55,4.70
2014,01,11,17,56,4.70
2014,01,11,17,57,4.70
2014,01,11,17,58,4.60
2014,01,11,17,59,4.60
2014,01,11,18,00,4.60
2014,01,11,18,01,4.60
2014,01,11,18,02,4.60
2014,01,11,18,03,4.50
2014,01,11,18,04,4.50
2014,01,11,18,05,4.50
2014,01,11,18,06,4.50